Regional Weather Roundup
Issued by NWS Mobile, AL

Home | Current Version | Previous Version | Text Only | Print | Product List | Glossary On
Versions: 1 2 3 4 5 6 7 8 9 10 11 12 13 14 15 16 17 18 19 20 21 22 23 24 25 26 27 28 29 30 31 32 33 34 35 36 37 38 39 40 41 42 43 44 45 46 47 48 49 50
000
ASUS44 KMOB 311410
RWRMOB
REGIONAL WEATHER ROUNDUP
NATIONAL WEATHER SERVICE MOBILE AL
800 AM CST SAT JAN 31 2015

NOTE: "FAIR" INDICATES FEW OR NO CLOUDS BELOW 12,000 FEET WITH NO
      SIGNIFICANT WEATHER AND/OR OBSTRUCTIONS TO VISIBILITY.

  * THESE STATIONS ARE PART OF THE UNIVERSITY OF SOUTH ALABAMA
    MESONET AND ARE NOT UNDER NWS OR FAA QUALITY CONTROL.

ALZ061>064-311500-
COASTAL ALABAMA

CITY           SKY/WX    TMP DP  RH WIND       PRES   REMARKS
MOBILE REG APT MOSUNNY   39  27  62 E12       30.34R
BROOKLEY FIELD SUNNY     43  28  55 NE9       30.35R
USA CAMPUS*    NOT AVBL
DOG RIVER*     NOT AVBL


CITY           SKY/WX    TMP DP  RH WIND       PRES   REMARKS
MOUNT VERNON*  NOT AVBL
SARALAND*      NOT AVBL
BAY MINETTE*   NOT AVBL
LOXLEY*        NOT AVBL
ROBERTSDALE*   NOT AVBL
FAIRHOPE*        N/A    N/A N/A N/A E16       30.31R
ELBERTA*         N/A    N/A N/A N/A NE6       30.31R
FOLEY*         NOT AVBL
GRAND BAY*     NOT AVBL
DAUPHIN ISLND* NOT AVBL
BON SCOUR NWR* NOT AVBL
GULF SHORES    SUNNY     41  30  64 NE5       30.32R

$$

ALZ051>060-311500-
INTERIOR SOUTHWEST AND SOUTH CENTRAL ALABAMA

CITY           SKY/WX    TMP DP  RH WIND       PRES   REMARKS
GREENVILLE     SUNNY     38  24  57 NE3       30.35R
EVERGREEN      SUNNY     36  27  69 NE5       30.35R
CASTLEBERRY*   NOT AVBL
ATMORE*          N/A    N/A N/A N/A E9        30.35R
DIXIE*           N/A    N/A N/A N/A CALM      30.30R
ANDALUSIA/OPP  SUNNY     41  26  55 E6        30.34S
ANDALUSIA*       N/A    N/A N/A N/A E9        30.32R
FLORALA APT    SUNNY     39  26  59 E8        30.35R
FLORALA*         N/A    N/A N/A N/A CALM      30.31R

$$

FLZ001>006-311500-
WESTERN FLORIDA PANHANDLE

CITY           SKY/WX    TMP DP  RH WIND       PRES   REMARKS
PENSACOLA      SUNNY     41  26  55 E8        30.33R
NAS PENSACOLA  SUNNY     46  30  53 E14       30.32R
MILTON         SUNNY     39  26  59 NE8       30.33R
WHTNG S FIELD  SUNNY     41  27  57 NE8       30.34R


CITY           SKY/WX    TMP DP  RH WIND       PRES   REMARKS
WALNUT HILL*   NOT AVBL
JAY*           NOT AVBL
DUKE FIELD     SUNNY     36  27  68 NE5       30.33R
CRESTVIEW      SUNNY     38  28  67 NE3       30.35R
VALPARAISO     MOSUNNY   40  25  54 E13       30.33R
DESTIN         SUNNY     45  30  55 E12G18    30.33R

$$

MSZ076-079-311500-
INTERIOR SOUTHEAST MISSISSIPPI

CITY           SKY/WX    TMP DP  RH WIND       PRES   REMARKS
LEAKESVILLE*   NOT AVBL
AGRICOLA*      NOT AVBL

$$

MARINE OBSERVATIONS

STATION/POSITION TIME  TEMP    WIND        PRES    WAVE
                       AIR SEA DIR/SP/G            HT/PER
                 (UTC) (F)     (DEG/KT/KT) (MB)    (FT/S)
PASCAGOULA       1400   42      60/  7/ 10 1026.5R
PETIT BOIS ISLND 1400   48      80/ 15/ 19 1026.7R
GRAND BAY        1300   43      70/ 10     1026.0S
KATRINA CUT      1300   47      80/ 20     1026.8R
CEDAR POINT      1300   45      80/ 15     1026.8S
E DAUPHIN ISLAND 1300   46      80/ 19/ 21 1026.2R
MIDDLE BAY LIGHT 1300   43      70/ 14     1026.1R
USCG MOBILE BAY  1400   42 54   50/  5/  8 1026.4R
STATE DOCKS      1400   42 50              1026.9R
MEAHER PARK      1300   40      10/  2     1027.4R
WEEKS BAY        1300   38                   N/A
FORT MORGAN      1400   45      90/ 11/ 14 1026.1R
12 S ORANGE BCH  1400   54 62   80/ 17/ 21 1025.5R   4/ 5
PENSACOLA BAY    1400   44 55   80/  6/ 10 1027.1R
64 S DAUPHIN ISL 1300   60 68  100/ 17/ 19 1025.5R   5/ 6

$$

SELECTED LOCATIONS ACROSS THE REGION

CITY           SKY/WX    TMP DP  RH WIND       PRES   REMARKS
NEW ORLEANS    MOSUNNY   49  38  65 NE7       30.30S
GULFPORT       SUNNY     41  29  62 NE6       30.33R
PASCAGOULA AP  SUNNY     39  31  72 NE5       30.33R
PASCAGOULA*    NOT AVBL
HATTIESBURG    SUNNY     33  30  88 CALM      30.37R
LAUREL         SUNNY     36  27  69 NE6       30.36R
MERIDIAN       SUNNY     35  28  75 NE6       30.38R WCI  30
JACKSON        PTSUNNY   40  26  57 E7        30.33F
MONTGOMERY     SUNNY     37  25  61 NE7       30.39R
TROY           SUNNY     36  26  67 NE6       30.37R
KINSTON*       NOT AVBL
GENEVA*        NOT AVBL
ASHFORD*         N/A    N/A N/A N/A E9        30.32R
DOTHAN         SUNNY     39  25  57 E7        30.38R
PANAMA CITY    SUNNY     41  29  62 NE7       30.33R

$$



USA.gov is the U.S. government's official web portal to all federal, state and local government web resources and services.